DW4563 Weather Reports


time (UTC)temp
F
wind
direction
speed
knots
gust
knots
rain 1hr
in
rain 24hr
in
rain mn
in
humidity
%
barometer
mb
20260506134303 57 176 3.5 10.4 0.00 0.00 0.00 63 1009.6
20260506133304 57 218 2.6 10.4 0.00 0.00 0.00 64 1009.7
20260506130303 57 86 2.6 6.1 0.00 0.00 0.00 62 1009.6
20260506124804 56 72 1.7 7.8 0.00 0.00 0.00 59 1009.6
20260506124304 56 60 4.3 7.8 0.00 0.00 0.00 56 1009.6
20260506123804 56 71 2.6 8.7 0.00 0.00 0.00 55 1009.6
20260506123304 56 51 3.5 8.7 0.00 0.00 0.00 54 1009.6
20260506121803 56 69 1.7 10.4 0.00 0.00 0.00 54 1009.5
20260506120803 56 68 5.2 12.2 0.00 0.00 0.00 52 1009.5
20260506114804 56 83 4.3 10.4 0.00 0.00 0.00 52 1009.4
20260506113804 56 74 2.6 13.9 0.00 0.00 0.00 53 1009.4
20260506113303 56 59 5.2 13.9 0.00 0.00 0.00 53 1009.4
20260506110303 56 89 7.0 13.0 0.00 0.00 0.00 54 1009.3
20260506104803 55 79 4.3 11.3 0.00 0.00 0.00 58 1009.2
20260506103804 55 58 4.3 12.2 0.00 0.00 0.00 58 1009.3
20260506101304 54 72 2.6 10.4 0.00 0.00 0.00 62 1009.2
20260506094803 53 108 3.5 7.8 0.00 0.00 0.00 65 1009.2
20260506093804 53 88 3.5 7.8 0.00 0.00 0.00 65 1009.1
20260506093303 53 69 2.6 7.8 0.00 0.00 0.00 63 1009.1
20260506091804 54 79 2.6 7.0 0.00 0.00 0.00 64 1009.0
20260506091304 53 79 3.5 7.0 0.00 0.00 0.00 65 1009.0
20260506090303 53 80 4.3 10.4 0.00 0.00 0.00 65 1009.0
20260506084303 53 66 3.5 11.3 0.00 0.00 0.00 65 1008.9
20260506081804 53 66 7.0 13.0 0.00 0.00 0.00 64 1008.9
20260506081304 53 78 2.6 10.4 0.00 0.00 0.00 65 1008.8
20260506080814 53 70 4.3 10.4 0.00 0.00 0.00 64 1008.8
20260506071803 53 56 2.6 10.4 0.00 0.00 0.00 75 1008.6
20260506071304 52 81 2.6 10.4 0.00 0.00 0.00 77 1008.6
20260506070803 52 62 5.2 10.4 0.00 0.00 0.00 77 1008.6
20260506070303 52 67 1.7 6.1 0.00 0.00 0.00 79 1008.5
20260506061804 51 52 0.9 2.6 0.00 0.00 0.00 84 1008.5
20260506061303 50 145 0.9 5.2 0.00 0.00 0.00 85 1008.5
20260506060305 49 104 0.9 2.6 0.00 0.00 0.00 87 1008.5
20260506050315 47 96 0.9 2.6 0.00 0.00 0.00 88 1008.4
20260506044303 47 221 1.7 2.6 0.00 0.00 0.00 87 1008.4
20260506043803 47 46 0.9 2.6 0.00 0.00 0.00 87 1008.4
20260506041803 47 136 0.9 2.6 0.00 0.00 0.00 87 1008.4
20260506041303 47 184 0.9 2.6 0.00 0.00 0.00 87 1008.4
20260506040804 47 109 0.9 2.6 0.00 0.00 0.00 87 1008.4
20260506040303 47 256 0.9 1.7 0.00 0.00 0.00 86 1008.4
20260506034803 47 107 0.9 2.6 0.00 0.00 0.00 86 1008.4
20260506033803 47 262 0.9 2.6 0.00 0.00 0.00 86 1008.4
20260506030303 48 359 0.9 2.6 0.00 0.00 0.00 85 1008.7
20260506024804 48 352 0.9 2.6 0.00 0.00 0.00 84 1008.7
20260506024303 48 330 0.9 2.6 0.00 0.00 0.00 84 1008.8
20260506021804 49 57 0.9 2.6 0.00 0.00 0.00 84 1008.8
20260506014304 49 180 0.9 2.6 0.00 0.00 0.00 83 1009.0
20260506013804 49 357 0.9 2.6 0.00 0.00 0.00 83 1009.0
20260506010803 50 88 0.9 4.3 0.00 0.00 0.00 82 1009.2
20260506010304 50 59 1.7 4.3 0.00 0.00 0.00 82 1009.2
20260506004804 50 65 0.9 2.6 0.00 0.00 0.00 82 1009.3
20260506004303 50 85 0.9 2.6 0.00 0.00 0.00 82 1009.3
20260506003804 50 107 0.9 2.6 0.00 0.00 0.00 82 1009.4
20260506003304 50 68 0.9 2.6 0.00 0.00 0.00 82 1009.5
20260506001803 50 82 1.7 2.6 0.00 0.00 0.00 81 1009.7
20260506001303 50 87 0.9 2.6 0.00 0.00 0.00 81 1009.7
20260506000803 50 168 1.7 2.6 0.00 0.00 0.00 81 1009.8
20260505233804 50 85 1.7 8.7 0.00 0.00 0.00 81 1009.9
20260505233304 50 72 2.6 8.7 0.00 0.00 0.00 81 1009.8
20260505230804 50 112 1.7 7.0 0.00 0.00 0.00 81 1009.9
20260505224803 50 110 1.7 5.2 0.00 0.00 0.00 81 1010.1
20260505224303 50 92 1.7 6.1 0.00 0.00 0.00 80 1010.1
20260505223304 50 59 1.7 6.1 0.00 0.00 0.00 80 1010.2
20260505221804 50 66 1.7 5.2 0.00 0.00 0.00 80 1010.3
20260505221303 50 180 1.7 2.6 0.00 0.00 0.00 80 1010.3
20260505220810 50 71 1.7 4.3 0.00 0.00 0.00 79 1010.4
20260505220304 50 77 1.7 4.3 0.00 0.00 0.00 80 1010.4
20260505214303 50 179 1.7 4.3 0.00 0.00 0.00 79 1010.5
20260505213304 50 143 2.6 5.2 0.00 0.00 0.00 79 1010.6
20260505211304 50 76 0.9 4.3 0.00 0.00 0.00 80 1010.6
20260505204804 50 259 0.9 4.3 0.00 0.00 0.00 80 1010.7
20260505204303 50 63 1.7 10.4 0.00 0.00 0.00 80 1010.8
20260505203804 50 117 2.6 10.4 0.00 0.00 0.00 80 1010.8
20260505194304 51 172 2.6 10.4 0.00 0.00 0.00 80 1010.7
20260505191303 51 203 2.6 7.8 0.00 0.00 0.00 80 1010.6
20260505190803 51 87 2.6 7.8 0.00 0.00 0.00 80 1010.5
20260505190303 51 178 2.6 7.8 0.00 0.00 0.00 80 1010.5
20260505184306 51 91 1.7 6.1 0.00 0.00 0.00 79 1010.4
20260505181811 51 236 2.6 7.8 0.00 0.00 0.00 79 1010.3
20260505180303 51 85 4.3 7.8 0.00 0.00 0.00 79 1010.4
20260505173305 52 67 4.3 7.8 0.00 0.00 0.00 78 1010.5
20260505171804 52 59 3.5 7.0 0.00 0.00 0.00 78 1010.5
20260505171305 52 101 2.6 7.8 0.00 0.00 0.00 78 1010.5
20260505170803 52 98 2.6 10.4 0.00 0.00 0.00 78 1010.6
20260505164303 53 105 1.7 10.4 0.00 0.00 0.00 77 1010.6
20260505163304 53 105 1.7 10.4 0.00 0.00 0.00 76 1010.6
20260505161304 53 87 1.7 5.2 0.00 0.00 0.00 76 1010.6
20260505160804 53 87 2.6 6.1 0.00 0.00 0.00 76 1010.6
20260505160303 53 184 0.9 7.8 0.00 0.00 0.00 77 1010.7
20260505140304 53 69 0.9 6.1 0.00 0.00 0.00 77 1011.2